Location: Lake Lucerne
(45.5315°N, 88.8489°W)
Time: 20:43:03
(UTC-05:00)

ARIANE 6 FM1 Upper Stage - Pass Details

Date: 20 September 2024
Orbit: 563 x 594 km, 62.0° (Epoch: 09 October)

Event Time Altitude Azimuth Distance (km) Brightness Sun altitude
Exits shadow 05:34:59 - 309° (NW) 2,389 5.5 -12.2°
Reaches altitude 10° 05:36:12 10° 303° (WNW) 1,936 5.0 -12.0°
Maximum altitude 05:40:09 34° 239° (WSW) 995 3.4 -11.3°
Drops below altitude 10° 05:44:06 10° 174° (S) 1,926 5.3 -10.6°
Sets 05:46:29 0° 165° (SSE) 2,823 6.3 -10.2°
